Content
SEND FEEDBACK

Daily
Averages
Monthly
Summary
United States of America

KINSEY, MONTANA


Home > North America > United States > Montana
Elevation: 2616 feet     Latitude: 46 26N     Longitude: 105 52W

WEATHER
 
SELECT A DAY
Number of Records: 192,985;   Date Range: 1/1/95 - 12/16/14
 
SHARE

PRINT THIS DATA

[ ← Previous Day ]
WEATHER ALMANAC - JANUARY 31, 2013
[ Next Day → ]
[ °C ]   °F
Weather ElementAverageHighLow
Temperature0.5 °F10.9 °F (10:53 pm)-7.1 °F (4:53 am)
Dewpoint-6.8 °F5 °F (11:53 pm)-16.1 °F (7:53 am)
Humidity71.5 %78 % (12:28 am)65 % (7:53 am)
Barometer30.30 in30.49 in (7:53 am)30.11 in (5:19 pm)
Wind Speed9.1 mph17.3 mph (1:32 am)
Weather ElementAverage
Visibility7.8 mi
Wind DirectionWSW (231 °)

Weather ElementTotal
Precipitation---
Heating Degree Days63.1 (Base 65)
Averaged from 31 records on January 31, 2013
WEATHER CONDITIONS BREAKOUT
WIND DIRECTION BREAKOUT
WEATHER BY HOUR - JANUARY 31, 2013
[ °C ]   °F
Local TimeTemperatureDewpointHumidityBarometerVisibilityWind DirectionWind SpeedGust SpeedPrecipitationEventsConditions
12:28 AM-2.2 °F-7.6 °F78 %30.14 in2.5 miNNW (330°)16.1 mph0.00 inSnowLight Snow
12:53 AM-2.0 °F-8.0 °F76 %30.32 in2.0 miNNW (330°)16.1 mph0.00 inSnowLight Snow
1:09 AM-2.2 °F-9.4 °F71 %30.16 in2.0 miNNW (330°)16.1 mph0.00 inSnowLight Snow
1:23 AM-2.2 °F-9.4 °F71 %30.16 in2.5 miNNW (330°)15.0 mph0.00 inSnowLight Snow
1:32 AM-2.2 °F-9.4 °F71 %30.17 in3.0 miNNW (330°)17.3 mph0.00 inSnowLight Snow
1:53 AM-4.0 °F-11.0 °F72 %30.36 in3.0 miNNW (340°)13.8 mph0.00 inSnowLight Snow
2:07 AM-5.8 °F-11.2 °F77 %30.19 in2.5 miNorth (360°)11.5 mph0.00 inSnowLight Snow
2:25 AM-5.8 °F-13.0 °F71 %30.20 in3.0 miNNW (340°)10.4 mph0.00 inSnowLight Snow
2:53 AM-6.0 °F-13.0 °F72 %30.40 in3.0 miNNW (340°)9.2 mph0.00 inSnowLight Snow
3:53 AM-6.0 °F-14.1 °F68 %30.41 in9.0 miNNW (330°)11.5 mph0.00 inOvercast
4:53 AM-7.1 °F-15.0 °F68 %30.44 in10.0 miNW (320°)12.7 mph0.00 inMostly Cloudy
5:53 AM-7.1 °F-15.0 °F68 %30.45 in10.0 miNNW (330°)11.5 mphMostly Cloudy
6:53 AM-7.1 °F-15.0 °F68 %30.47 in10.0 miNW (320°)6.9 mphOvercast
7:53 AM-7.1 °F-16.1 °F65 %30.49 in10.0 miWNW (300°)5.8 mphOvercast
8:53 AM-6.0 °F-15.0 °F65 %30.49 in10.0 miCalmOvercast
9:53 AM-5.1 °F-11.9 °F72 %30.48 in10.0 miSSW (210°)3.5 mphOvercast
11:53 AM-0.9 °F-8.0 °F72 %30.45 in10.0 miSouth (170°)4.6 mphOvercast
12:53 PM1.0 °F-7.1 °F69 %30.42 in10.0 miSouth (180°)5.8 mphOvercast
1:53 PM1.9 °F-6.0 °F69 %30.39 in10.0 miSSE (150°)8.1 mphOvercast
2:53 PM5.0 °F-2.9 °F70 %30.36 in10.0 miSouth (170°)5.8 mphOvercast
3:25 PM5.0 °F-2.2 °F72 %30.15 in10.0 miSSE (150°)5.8 mphOvercast
3:53 PM6.1 °F-2.0 °F69 %30.34 in10.0 miSSE (150°)6.9 mphOvercast
4:53 PM7.0 °F-0.9 °F70 %30.31 in10.0 miSSE (150°)6.9 mphOvercast
5:19 PM6.8 °F-0.4 °F72 %30.11 in10.0 miSE (130°)6.9 mphOvercast
5:53 PM7.0 °F-0.9 °F70 %30.29 in10.0 miSSE (150°)6.9 mphOvercast
6:53 PM8.1 °F1.0 °F73 %30.27 in10.0 miSSE (150°)6.9 mphOvercast
7:53 PM8.1 °F1.0 °F73 %30.25 in10.0 miSSE (150°)8.1 mphPartly Cloudy
8:53 PM7.0 °F1.0 °F77 %30.22 in10.0 miSSE (150°)9.2 mphMostly Cloudy
9:53 PM8.1 °F1.9 °F76 %30.20 in10.0 miSSE (150°)5.8 mphOvercast
10:53 PM10.9 °F3.9 °F73 %30.17 in10.0 miSSE (160°)8.1 mphOvercast
11:53 PM10.9 °F5.0 °F77 %30.15 in10.0 miSSE (160°)8.1 mphOvercast
Hourly data recorded from KMLS, located miles away from Kinsey, Montana







STORIES FROM OUR PARTNERS